Voltar ao catálogo

STARLINK-35075

AtivoComunicaçõesVLEO
NORAD 65702·PAYLOAD·🇺🇸 United States

Lançado Sep 21, 2025 de Cape Canaveral Space Force Station

Loading…

Próximas Passagens (próximas 24 horas)

TLE

AtualizadoSource: CelesTrak SupGP

Época: Sep 15, 2026, 03:16 UTC

1 65702C 25212AC  26258.13659722 -.00046265  00000+0 -14880-2 0  2585
2 65702  53.1568 184.8447 0001314  81.9397 180.0018 15.31720779    13

Acompanhe STARLINK-35075 em tempo real com AllMySat

Download on the App Store